AirNav   TITAN Aviation Fuels
 
 588 users online  

NH79 Falcon Station Heliport
West Epping, New Hampshire, USA

GOING TO WEST EPPING?


FAA INFORMATION EFFECTIVE 15 JULY 2021

Location

FAA Identifier: NH79
Lat/Long: 43-02-26.3070N 071-07-32.2190W
43-02.438450N 071-07.536983W
43.0406408,-71.1256164
(estimated)
Elevation: 160 ft. / 49 m (estimated)
Variation: 16W (1990)
From city: 2 miles W of WEST EPPING, NH
Time zone: UTC -4 (UTC -5 during Standard Time)
Zip code: 03042

Heliport Operations

Heliport use: Private use. Permission required prior to landing
Activation date: 02/1993
Control tower: no
ARTCC: BOSTON CENTER
FSS: BANGOR FLIGHT SERVICE STATION
Attendance: UNATNDD
Segmented circle: no

Heliport Communications

WX ASOS at MHT (15 nm SW): 119.55 (603-621-1766)
WX ASOS at DAW (17 nm NE): 135.275 (603-332-7814)
WX ASOS at CON (19 nm NW): 132.325 (603-224-6558)
WX ASOS at LWM (19 nm S): PHONE 978-687-8017

Nearby radio navigation aids

VOR radial/distance  VOR name  Freq  Var
PSMr274/13.1PEASE VOR/DME116.5016W
MHTr061/14.9MANCHESTER VOR/DME114.4015W
CONr134/22.4CONCORD VOR/DME112.9015W
ENEr241/32.2KENNEBUNK VOR/DME117.1017W

 
NDB name  Hdg/Dist  Freq  Var  ID
ROLLINS246/16.926016WESG . ... --.

Heliport Services

Runway Information

Helipad H1

Dimensions: 50 x 50 ft. / 15 x 15 m
Surface: turf
Traffic pattern: leftleft

Heliport Ownership and Management from official FAA records

Ownership: Privately-owned
Owner: MICHAEL E SWEENEY
NOTTINGHAM RD/FOLSOM MILL LA
WEST EPPING, NH 03042
Phone 603-679-5363
Manager: MICHAEL E SWEENEY
NOTTINGHAM RD/FOLSOM MILL LA
WEST EPPING, NH 08042
Phone 603-679-8304

Additional Remarks

A52-H1 TREES IN VICINITY OF PAD.
FOR CD CTC BOSTON APCH AT 603-594-5551.

Instrument Procedures

There are no published instrument procedures at NH79.

Some nearby airports with instrument procedures:

KPSM - Portsmouth International Airport at Pease (13 nm E)
KMHT - Manchester Airport (15 nm SW)
3B4 - Littlebrook Air Park (17 nm E)
KDAW - Skyhaven Airport (17 nm NE)
KCON - Concord Municipal Airport (19 nm NW)
KLWM - Lawrence Municipal Airport (19 nm S)
 
Loc | Ops | Rwys | IFR | FBO | Links
Com | Nav | Svcs | Stats | Notes
Area around NH79 (Falcon Station Heliport)
 
Road maps at: MapQuest Bing Google
 
Aerial photo
No photo
 
Sectional chart

 
Airport distance calculator
Flying to Falcon Station Heliport? Find the distance to fly.

From to NH79

Sunrise and sunset
Times for 31-Jul-2021
 Local
(UTC-4)
 Zulu
(UTC)
Morning civil twilight05:0309:03
Sunrise05:3509:35
Sunset20:0700:07
Evening civil twilight20:3900:39

Current date and time
Zulu (UTC)  31-Jul-2021 05:16:15
Local (UTC-4)  31-Jul-2021 01:16:15
 
METAR
KPSM 
14nm E 
310456Z 28006KT 10SM FEW060 15/06 A2987 RMK AO2A SLP117 T01470063 402590147
KMHT 
15nm SW 
310453Z 29008KT 10SM FEW080 16/07 A2988 RMK AO2 SLP127 T01560072 402560156
KDAW 
17nm NE 
310451Z AUTO 00000KT 10SM CLR 14/08 A2987 RMK AO2 SLP109 T01440078 402500139
KCON 
19nm NW 
310451Z AUTO 27006KT 10SM OVC050 15/07 A2989 RMK AO2 SLP122 T01500072 402560139
KLWM 
19nm S 
310454Z AUTO 28005KT 10SM CLR 16/08 A2991 RMK AO2 SLP128 T01560083 402560150
KASH 
24nm SW 
310456Z AUTO 27004KT 10SM CLR 14/10 A2991 RMK AO2 SLP131 T01440100 402610139
KSFM 
27nm NE 
310456Z AUTO 25005KT 10SM BKN050 12/08 A2986 RMK AO2 SLP113 T01220083
TAF
KPSM 
14nm E 
302011Z 3020/3118 30013G23KT P6SM FEW060 BKN120 FM310100 27007KT P6SM FEW250 FM311400 29011G17KT P6SM SCT250
KMHT 
15nm SW 
302011Z 3020/3118 32014G25KT P6SM BKN060 BKN070 FM310200 29005KT P6SM SCT250 FM311500 30009G16KT P6SM BKN250
KCON 
19nm NW 
301720Z 3018/3118 30011G18KT P6SM SCT040 SCT045 BKN110 FM301900 31014G21KT P6SM FEW060 BKN120 FM310000 30004KT P6SM FEW150 FM311400 30011G17KT P6SM SKC
NOTAMs
Click for the latest NOTAMs
NOTAMs are issued by the DoD/FAA and will open in a separate window not controlled by AirNav.

 

 
 

Would you like to see your business listed on this page?

 If your business provides an interesting product or service to pilots, flight crews, aircraft, or users of the Falcon Station Heliport, you should consider listing it here.  To start the listing process, click on the button below
 
Add a business
 

Other Pages about Falcon Station Heliport

Update a link
 
Copyright © AirNav, LLC. All rights reserved. Privacy Policy  Contact